Date String (YYYY-MM-DD hh:mm:ss) UTC,Instrument flags,absolute air pressure of the measurement (hPa),sample flow rate (lpm),inlet stack bypass flow (lpm),air temperature of the measurement (°C),ambient temperature measured by the external sensor (°C),aerosol sample conditioner tube jacket temperature (°C),OPC LED temperature (°C),internal box temperature (°C),relative humidity of the measurement (%),span deviation,mass concentration of particles derived from Lorenz-Mie calculation of OPC scattering (μg/m³),mass concentration of particles derived from Lorenz-Mie calculation of OPC scattering (μg/m³),mass concentration of particles derived from Lorenz-Mie calculation of OPC scattering (μg/m³)
DateTimeUTC,F1_M11,P_M11,Q1_M11,Q2_M11,T1_M11,T2_M11,T3_M11,T4_M11,T5_M11,U1_M11,ZSPAN_M11,X0_M11,X2_M11,X1_M11
2023-11-18 17:00:00,SystemResetWarning,0829.4,5.00,000.00,025.0,024.3,000.0,033.0,026.5,16.3,0004.1,0011.86,0005.79,0005.05
2023-11-18 17:01:00,SystemResetWarning,0829.3,5.00,000.00,025.0,024.3,000.0,033.1,026.5,16.3,0004.1,0011.77,0005.76,0005.05
2023-11-18 17:02:00,SystemResetWarning,0829.3,5.00,000.00,025.0,024.3,000.0,033.1,026.5,16.1,0004.1,0012.17,0005.74,0005.02
2023-11-18 17:03:00,SystemResetWarning,0829.3,5.00,000.00,025.0,024.3,000.0,033.1,026.5,16.0,0003.9,0013.49,0005.73,0004.99
2023-11-18 17:04:00,SystemResetWarning,0829.3,5.00,000.00,025.0,024.3,000.0,033.1,026.5,15.9,0004.3,0013.96,0005.66,0004.93
2023-11-18 17:05:00,SystemResetWarning,0829.3,5.00,000.00,025.1,024.3,000.0,033.1,026.5,16.1,0004.4,0013.66,0005.62,0004.89
2023-11-18 17:06:00,SystemResetWarning,0829.3,5.00,000.00,025.1,024.4,000.0,033.2,026.5,15.9,0004.6,0013.20,0005.57,0004.85
2023-11-18 17:07:00,SystemResetWarning,0829.2,5.01,000.00,025.1,024.4,000.0,033.2,026.6,15.8,0004.9,0014.13,0005.58,0004.84
2023-11-18 17:08:00,SystemResetWarning,0829.2,5.01,000.00,025.1,024.4,000.0,033.2,026.6,15.7,0004.9,0014.35,0005.54,0004.82
2023-11-18 17:09:00,SystemResetWarning,0829.2,5.00,000.00,025.1,024.4,000.0,033.2,026.6,15.6,0005.0,0014.12,0005.51,0004.82
2023-11-18 17:10:00,SystemResetWarning,0829.2,5.00,000.00,025.2,024.4,000.0,033.2,026.6,15.3,0005.0,0014.06,0005.51,0004.82
2023-11-18 17:11:00,SystemResetWarning,0829.2,5.00,000.00,025.2,024.5,000.0,033.3,026.6,15.4,0004.8,0014.11,0005.51,0004.81
2023-11-18 17:12:00,SystemResetWarning,0829.2,5.00,000.00,025.2,024.5,000.0,033.3,026.6,15.5,0004.5,0014.16,0005.51,0004.80
2023-11-18 17:13:00,SystemResetWarning,0829.1,5.00,000.00,025.2,024.5,000.0,033.3,026.7,15.5,0004.3,0013.84,0005.52,0004.81
2023-11-18 17:14:00,SystemResetWarning,0829.1,4.99,000.00,025.2,024.5,000.0,033.3,026.7,15.5,0004.7,0012.74,0005.54,0004.83
2023-11-18 17:15:00,SystemResetWarning,0829.1,5.00,000.00,025.3,024.5,000.0,033.3,026.7,15.6,0004.6,0011.68,0005.54,0004.85
2023-11-18 17:16:00,SystemResetWarning,0829.1,5.00,000.00,025.3,024.6,000.0,033.4,026.7,15.7,0004.7,0012.01,0005.57,0004.86
2023-11-18 17:17:00,SystemResetWarning,0829.1,5.01,000.00,025.3,024.6,000.0,033.4,026.8,15.7,0004.1,0013.23,0005.57,0004.87
2023-11-18 17:18:00,SystemResetWarning,0829.1,5.00,000.00,025.3,024.6,000.0,033.4,026.8,15.7,0003.8,0012.32,0005.56,0004.89
2023-11-18 17:19:00,SystemResetWarning,0829.1,5.00,000.00,025.3,024.6,000.0,033.4,026.8,15.7,0003.6,0012.09,0005.56,0004.90
2023-11-18 17:20:00,SystemResetWarning,0829.0,5.00,000.00,025.3,024.6,000.0,033.4,026.8,15.8,0003.3,0012.04,0005.56,0004.91
2023-11-18 17:21:00,SystemResetWarning,0828.9,5.01,000.00,025.4,024.7,000.0,033.4,026.9,15.6,0003.0,0011.83,0005.54,0004.91
2023-11-18 17:22:00,SystemResetWarning,0828.9,5.00,000.00,025.4,024.7,000.0,033.5,026.9,15.6,0003.0,0011.67,0005.52,0004.91
2023-11-18 17:23:00,SystemResetWarning,0829.0,4.99,000.00,025.4,024.7,000.0,033.5,026.9,15.4,0003.6,0011.79,0005.56,0004.93
2023-11-18 17:24:00,SystemResetWarning,0829.0,4.99,000.00,025.5,024.7,000.0,033.5,026.9,15.5,0003.9,0012.14,0005.52,0004.93
2023-11-18 17:25:00,SystemResetWarning,0828.9,4.99,000.00,025.5,024.8,000.0,033.5,027.0,15.2,0003.9,0012.67,0005.51,0004.93
2023-11-18 17:26:00,SystemResetWarning,0829.0,5.00,000.00,025.5,024.8,000.0,033.5,027.0,15.2,0003.7,0012.31,0005.54,0004.94
2023-11-18 17:27:00,SystemResetWarning,0828.8,5.01,000.00,025.5,024.8,000.0,033.6,027.0,14.8,0003.2,0011.87,0005.52,0004.94
2023-11-18 17:28:00,SystemResetWarning,0828.8,5.01,000.00,025.5,024.8,000.0,033.6,027.0,15.0,0003.2,0010.68,0005.54,0004.92
2023-11-18 17:29:00,SystemResetWarning,0828.8,5.00,000.00,025.6,024.9,000.0,033.6,027.0,15.2,0003.0,0011.00,0005.56,0004.90
2023-11-18 17:30:00,SystemResetWarning,0828.7,5.00,000.00,025.6,024.9,000.0,033.6,027.1,15.2,0003.0,0011.38,0005.52,0004.88
2023-11-18 17:31:00,SystemResetWarning,0828.7,5.00,000.00,025.6,024.9,000.0,033.7,027.1,15.1,0003.1,0011.84,0005.51,0004.89
2023-11-18 17:32:00,SystemResetWarning,0828.7,5.00,000.00,025.6,024.9,000.0,033.7,027.1,15.0,0003.3,0012.07,0005.48,0004.88
2023-11-18 17:33:00,SystemResetWarning,0828.6,5.00,000.00,025.7,024.9,000.0,033.7,027.1,14.9,0003.4,0012.12,0005.45,0004.85
2023-11-18 17:34:00,SystemResetWarning,0828.6,5.00,000.00,025.7,025.0,000.0,033.7,027.1,15.1,0003.4,0012.76,0005.37,0004.80
2023-11-18 17:35:00,SystemResetWarning,0828.5,5.00,000.00,025.7,025.0,000.0,033.7,027.2,15.2,0003.3,0012.91,0005.35,0004.77
2023-11-18 17:36:00,SystemResetWarning,0828.5,5.00,000.00,025.7,025.0,000.0,033.8,027.2,15.3,0003.0,0012.27,0005.33,0004.75
2023-11-18 17:37:00,SystemResetWarning,0828.5,5.00,000.00,025.7,025.0,000.0,033.8,027.2,15.4,0003.0,0012.40,0005.28,0004.74
2023-11-18 17:38:00,SystemResetWarning,0828.6,5.00,000.00,025.8,025.1,000.0,033.8,027.3,15.2,0003.3,0012.40,0005.25,0004.73
2023-11-18 17:39:00,SystemResetWarning,0828.6,5.00,000.00,025.8,025.1,000.0,033.8,027.3,15.1,0003.7,0012.34,0005.22,0004.71
2023-11-18 17:40:00,SystemResetWarning,0828.6,5.00,000.00,025.8,025.1,000.0,033.9,027.3,14.9,0004.0,0011.99,0005.21,0004.72
2023-11-18 17:41:00,SystemResetWarning,0828.5,5.00,000.00,025.8,025.1,000.0,033.9,027.3,14.9,0004.2,0012.43,0005.22,0004.72
2023-11-18 17:42:00,SystemResetWarning,0828.5,5.00,000.00,025.9,025.1,000.0,033.9,027.4,14.8,0004.2,0012.42,0005.23,0004.72
2023-11-18 17:43:00,SystemResetWarning,0828.5,5.00,000.00,025.9,025.2,000.0,033.9,027.4,14.5,0004.2,0012.17,0005.23,0004.71
2023-11-18 17:44:00,SystemResetWarning,0828.4,5.00,000.00,025.9,025.2,000.0,033.9,027.4,14.5,0004.1,0012.24,0005.25,0004.73
2023-11-18 17:45:00,SystemResetWarning,0828.4,5.00,000.00,025.9,025.2,000.0,034.0,027.5,14.7,0004.2,0011.58,0005.27,0004.75
2023-11-18 17:46:00,SystemResetWarning,0828.4,5.01,000.00,026.0,025.2,000.0,034.0,027.5,14.8,0004.3,0011.25,0005.26,0004.76
2023-11-18 17:47:00,SystemResetWarning,0828.4,5.00,000.00,026.0,025.3,000.0,034.0,027.5,14.6,0004.6,0011.55,0005.26,0004.75
2023-11-18 17:48:00,SystemResetWarning,0828.4,5.00,000.00,026.0,025.3,000.0,034.0,027.5,14.6,0004.4,0011.65,0005.30,0004.74
2023-11-18 17:49:00,SystemResetWarning,0828.4,5.01,000.00,026.0,025.3,000.0,034.1,027.5,14.5,0004.4,0011.87,0005.30,0004.72
2023-11-18 17:50:00,SystemResetWarning,0828.4,4.99,000.00,026.1,025.3,000.0,034.1,027.6,14.5,0004.4,0011.81,0005.27,0004.71
2023-11-18 17:51:00,SystemResetWarning,0828.4,5.00,000.00,026.1,025.4,000.0,034.1,027.6,14.6,0004.5,0011.76,0005.26,0004.69
2023-11-18 17:52:00,SystemResetWarning,0828.3,5.00,000.00,026.1,025.4,000.0,034.1,027.6,14.4,0004.5,0010.96,0005.23,0004.70
2023-11-18 17:53:00,SystemResetWarning,0828.3,5.00,000.00,026.1,025.4,000.0,034.1,027.6,14.4,0004.5,0011.41,0005.23,0004.70
2023-11-18 17:54:00,SystemResetWarning,0828.2,5.00,000.00,026.1,025.4,000.0,034.2,027.6,14.5,0004.6,0011.58,0005.23,0004.69
2023-11-18 17:55:00,SystemResetWarning,0828.2,4.99,000.00,026.2,025.5,000.0,034.2,027.7,14.5,0004.7,0012.03,0005.23,0004.68
2023-11-18 17:56:00,SystemResetWarning,0828.2,5.00,000.00,026.2,025.5,000.0,034.2,027.7,14.5,0004.4,0012.23,0005.20,0004.67
2023-11-18 17:57:00,SystemResetWarning,0828.2,5.00,000.00,026.2,025.5,000.0,034.3,027.7,14.5,0004.2,0012.70,0005.27,0004.68
2023-11-18 17:58:00,SystemResetWarning,0828.2,5.01,000.00,026.2,025.5,000.0,034.3,027.7,14.5,0004.1,0012.42,0005.29,0004.68
2023-11-18 17:59:00,SystemResetWarning,0828.2,5.01,000.00,026.3,025.5,000.0,034.3,027.7,14.4,0004.3,0012.07,0005.26,0004.68
